Location: Stockholm
(59.3333°N, 18.0500°E)
Time: 04:49:19
(UTC+02:00)

ISS - Pass Details

Date: 19 July 2021
Orbit: 419 x 421 km, 51.6° (Epoch: 03 August)

Event Time Altitude Azimuth Distance (km) Brightness Sun altitude
Rises 23:00:49 0° 249° (WSW) 2,372 0.1 -6.7°
Reaches altitude 10° 23:03:12 10° 234° (SW) 1,507 -1.0 -6.8°
Maximum altitude 23:05:54 22° 181° (S) 966 -2.4 -7.0°
Drops below altitude 10° 23:08:36 10° 128° (SE) 1,506 -1.5 -7.1°
Enters shadow 23:09:41 - 119° (ESE) 1,883 -0.9 -7.2°
